Weather History for Eindhoven, Netherlands

Change the Weather History Date:

Saturday, October 27, 2012

  Actual Average Record
Temperature  
Mean Temperature 36 °F -  
Max Temperature 45 °F 48 °F 71 °F (2005)
Min Temperature 28 °F 38 °F 28 °F (2003)
Degree Days  
Heating Degree Days 28    
Moisture  
Dew Point 31 °F    
Average Humidity 83    
Maximum Humidity 93    
Minimum Humidity 55    
Precipitation  
Precipitation 0.02 in - - ()
Sea Level Pressure  
Sea Level Pressure 29.78 in    
Wind  
Wind Speed 7 mph ()    
Max Wind Speed 20 mph    
Max Gust Speed 28 mph    
Visibility 6.4 miles    
Events Rain    
Averages and records for this station are not official NWS values.
T = Trace of Precipitation, MM = Missing Value Source: Averaged Metar Reports

Daily Weather History Graph

Daily Weather History Graph

Search for Another Location

Airport:

Trip Planner

Search our weather history database for the weather conditions in past years. The results will help you decide how hot, cold, wet, or windy it might be!

Date:

Astronomy

Oct. 27, 2012 Rise Set
Actual Time 8:23 AM CEST 6:20 PM CEST
Civil Twilight 7:48 AM CEST 6:54 PM CEST
Nautical Twilight 7:09 AM CEST 7:33 PM CEST
Astronomical Twilight 6:31 AM CEST 8:12 PM CEST
Moon 5:07 PM CEST (10/27) 5:51 AM CEST (10/27)
Length of Visible Light 11h 05m
Length of Day
9h 56m
Waxing Gibbous, 95% of the Moon is Illuminated
Oct 27
Waxing Gibbous
Oct 29
Full
Nov 7
Last Quarter
Nov 13
New
Nov 20
First Quarter

Hourly Weather History & Observations

Time (CEST) Temp. Windchill Dew Point Humidity Pressure Visibility Wind Dir Wind Speed Gust Speed Precip Events Conditions
12:25 AM 37.4 °F 30.3 °F 30.2 °F 75% 29.68 in 6.2 mi North 10.4 mph - N/A   Overcast
12:55 AM 37.4 °F 30.8 °F 30.2 °F 75% 29.68 in 6.2 mi North 9.2 mph - N/A   Overcast
1:25 AM 35.6 °F 29.2 °F 30.2 °F 81% 29.65 in 6.2 mi NNE 8.1 mph - N/A   Overcast
1:55 AM 33.8 °F 27.0 °F 30.2 °F 87% 29.65 in 6.2 mi North 8.1 mph - N/A   Mostly Cloudy
2:00 AM 34 °F - 29 °F 75% 29.67 in 28 mi North 8.9 mph - -   Partly Cloudy
2:25 AM 33.8 °F 27.0 °F 28.4 °F 81% 29.65 in 6.2 mi North 8.1 mph - N/A   Unknown
2:55 AM 32.0 °F 24.8 °F 28.4 °F 87% 29.65 in 6.2 mi North 8.1 mph - N/A   Unknown
3:25 AM 32.0 °F 25.6 °F 28.4 °F 87% 29.65 in 6.2 mi North 6.9 mph - N/A   Unknown
3:55 AM 30.2 °F 24.3 °F 28.4 °F 93% 29.65 in 6.2 mi North 5.8 mph - N/A   Unknown
4:25 AM 30.2 °F 23.4 °F 28.4 °F 93% 29.65 in 6.2 mi North 6.9 mph - N/A   Unknown
4:55 AM 30.2 °F 23.4 °F 28.4 °F 93% 29.65 in 6.2 mi North 6.9 mph - N/A   Partly Cloudy
5:00 AM 30 °F - 27 °F 84% 29.66 in 22 mi North 6.7 mph - -   Scattered Clouds
5:25 AM 30.2 °F 23.4 °F 26.6 °F 86% 29.65 in 6.2 mi North 6.9 mph - N/A   Partly Cloudy
5:55 AM 30.2 °F 22.6 °F 26.6 °F 86% 29.65 in 6.2 mi North 8.1 mph - N/A   Unknown
6:25 AM 30.2 °F 23.4 °F 26.6 °F 86% 29.65 in 6.2 mi North 6.9 mph - N/A   Unknown
6:55 AM 30.2 °F 23.4 °F 26.6 °F 86% 29.65 in 6.2 mi North 6.9 mph - N/A   Partly Cloudy
7:25 AM 30.2 °F 25.4 °F 26.6 °F 86% 29.68 in 6.2 mi North 4.6 mph - N/A   Overcast
7:44 AM 30.2 °F 24.3 °F 28.4 °F 93% 29.68 in 6.2 mi North 5.8 mph - N/A   Mostly Cloudy
7:55 AM 32.0 °F 25.6 °F 28.4 °F 87% 29.68 in 6.2 mi North 6.9 mph - N/A   Unknown
8:10 AM 30.2 °F 24.3 °F 28.4 °F 93% 29.68 in 6.2 mi NNE 5.8 mph - N/A   Unknown
8:25 AM 30.2 °F 24.3 °F 28.4 °F 93% 29.68 in 6.2 mi North 5.8 mph - N/A   Unknown
8:55 AM 30.2 °F 24.3 °F 28.4 °F 93% 29.71 in 6.2 mi NNE 5.8 mph - N/A   Partly Cloudy
9:25 AM 32.0 °F 27.5 °F 30.2 °F 93% 29.71 in 6.2 mi NNW 4.6 mph - N/A   Unknown
9:42 AM 33.8 °F 27.7 °F 32.0 °F 93% 29.71 in 6.2 mi North 6.9 mph - N/A   Partly Cloudy
9:55 AM 33.8 °F 27.7 °F 32.0 °F 93% 29.71 in 6.2 mi North 6.9 mph - N/A   Partly Cloudy
10:13 AM 35.6 °F 29.2 °F 32.0 °F 87% 29.74 in 6.2 mi North 8.1 mph - N/A   Unknown
10:25 AM 35.6 °F 29.9 °F 32.0 °F 87% 29.74 in 6.2 mi NNE 6.9 mph - N/A   Unknown
10:40 AM 37.4 °F 31.4 °F 33.8 °F 87% 29.74 in 6.2 mi NNE 8.1 mph - N/A   Partly Cloudy
10:55 AM 37.4 °F 31.4 °F 33.8 °F 87% 29.74 in 6.2 mi North 8.1 mph - N/A   Unknown
10:56 AM 37.4 °F 30.8 °F 33.8 °F 87% 29.74 in 6.2 mi North 9.2 mph - N/A   Partly Cloudy
11:00 AM 38 °F - 34 °F 79% 29.76 in 19 mi NNE 8.9 mph - -  
11:25 AM 39.2 °F 34.2 °F 33.8 °F 81% 29.74 in 6.2 mi North 6.9 mph - N/A   Scattered Clouds
11:37 AM 41.0 °F 36.4 °F 33.8 °F 76% 29.74 in 6.2 mi NNE 6.9 mph - N/A   Scattered Clouds
11:55 AM 41.0 °F 36.4 °F 33.8 °F 76% 29.74 in 6.2 mi NNE 6.9 mph - N/A   Scattered Clouds
12:25 PM 41.0 °F 34.7 °F 33.8 °F 76% 29.77 in 6.2 mi NE 10.4 mph - N/A   Scattered Clouds
12:55 PM 44.6 °F 38.8 °F 35.6 °F 71% 29.77 in 6.2 mi NE 11.5 mph - N/A   Scattered Clouds
1:11 PM 42.8 °F 37.0 °F 33.8 °F 70% 29.77 in 6.2 mi NE 10.4 mph - N/A   Mostly Cloudy
1:25 PM 44.6 °F 39.7 °F 35.6 °F 71% 29.77 in 6.2 mi NE 9.2 mph - N/A   Mostly Cloudy
1:55 PM 44.6 °F 39.2 °F 33.8 °F 66% 29.77 in 6.2 mi NE 10.4 mph - N/A   Mostly Cloudy
2:00 PM 45 °F - 34 °F 55% 29.81 in 28 mi NE 11.2 mph - -   Partly Cloudy
2:25 PM 42.8 °F 37.0 °F 32.0 °F 66% 29.80 in 6.2 mi North 10.4 mph - N/A   Scattered Clouds
2:55 PM 44.6 °F 39.7 °F 33.8 °F 66% 29.80 in 6.2 mi North 9.2 mph - N/A   Partly Cloudy
3:15 PM 44.6 °F 40.2 °F 33.8 °F 66% 29.80 in 6.2 mi North 8.1 mph - N/A   Mostly Cloudy
3:25 PM 42.8 °F 37.5 °F 33.8 °F 70% 29.80 in 6.2 mi North 9.2 mph - N/A   Mostly Cloudy
3:46 PM 39.2 °F 29.6 °F 35.6 °F 87% 29.83 in 6.2 mi NNE 19.6 mph - N/A Rain Light Rain
3:55 PM 39.2 °F 30.5 °F 35.6 °F 87% 29.83 in 6.2 mi NNE 16.1 mph 27.6 mph N/A Rain Light Rain
3:56 PM 39.2 °F 32.0 °F 35.6 °F 87% 29.83 in 6.2 mi NNE 11.5 mph - N/A   Mostly Cloudy
4:25 PM 42.8 °F 39.3 °F 37.4 °F 81% 29.83 in 6.2 mi North 5.8 mph - N/A   Partly Cloudy
4:55 PM 42.8 °F 37.5 °F 35.6 °F 76% 29.83 in 6.2 mi North 9.2 mph - N/A   Unknown
5:25 PM 44.6 °F 39.7 °F 35.6 °F 71% 29.83 in 6.2 mi North 9.2 mph - N/A   Unknown
5:55 PM 42.8 °F 38.6 °F 35.6 °F 76% 29.86 in 6.2 mi NNE 6.9 mph - N/A   Mostly Cloudy
6:24 PM 41.0 °F 36.4 °F 33.8 °F 76% 29.86 in 6.2 mi North 6.9 mph - N/A   Partly Cloudy
6:25 PM 41.0 °F 36.4 °F 33.8 °F 76% 29.86 in 6.2 mi North 6.9 mph - N/A   Partly Cloudy
6:55 PM 37.4 °F 32.8 °F 33.8 °F 87% 29.89 in 6.2 mi North 5.8 mph - N/A   Partly Cloudy
7:17 PM 39.2 °F 34.2 °F 32.0 °F 75% 29.89 in 6.2 mi North 6.9 mph - N/A   Partly Cloudy
7:25 PM 39.2 °F 35.0 °F 32.0 °F 75% 29.89 in 6.2 mi North 5.8 mph - N/A   Partly Cloudy
7:55 PM 37.4 °F 32.8 °F 32.0 °F 81% 29.92 in 6.2 mi NNW 5.8 mph - N/A   Unknown
8:00 PM 37 °F - 32 °F 75% 29.94 in 28 mi NNW 6.7 mph - -   Partly Cloudy
8:25 PM 35.6 °F 31.7 °F 32.0 °F 87% 29.92 in 6.2 mi NNW 4.6 mph - N/A   Partly Cloudy
8:55 PM 33.8 °F - 30.2 °F 87% 29.95 in 6.2 mi NW 2.3 mph - N/A   Unknown
9:25 PM 32.0 °F - 30.2 °F 93% 29.95 in 6.2 mi WNW 2.3 mph - N/A   Unknown
9:55 PM 32.0 °F - 30.2 °F 93% 29.95 in 6.2 mi NW 1.2 mph - N/A   Unknown
10:25 PM 32.0 °F - 30.2 °F 93% 29.98 in 6.2 mi NW 1.2 mph - N/A   Unknown
10:55 PM 30.2 °F 26.7 °F 28.4 °F 93% 29.98 in 6.2 mi NW 3.5 mph - N/A   Unknown
11:00 PM 31 °F - 29 °F 91% 29.99 in 28 mi NW 2.2 mph - -  
11:25 PM 28.4 °F - 26.6 °F 93% 29.98 in 6.2 mi WSW 1.2 mph - N/A   Unknown
11:55 PM 32.0 °F 27.5 °F 30.2 °F 93% 29.98 in 6.2 mi WNW 4.6 mph - N/A   Unknown